Flag for Germany Weather past 2 weeks in Alsdorf, North Rhine-Westphalia, Germany

Now
39 °F

Overcast.


Feels Like: 34 °F
Forecast: 47 / 51 °F
Wind: 7 mph from South

Location: Maastricht Airport Zuid Limburg

Current Time: Mar 28, 2015 at 6:02:05 AM

Latest Report: Mar 28, 2015 at 5:25 AM


Visibility: N/A

Pressure: 30.15 "Hg

Humidity: 81%

Dew point: 34 °F

Location of AlsdorfLocation

Historic Weather in Alsdorf — Graph

°F

Alsdorf temperature yesterday

Maximum temperature yesterday: 50 °F (at 2:25 PM)
Minimum temperature yesterday: 39 °F (at 3:55 AM)
Average temperature yesterday: 44 °F

Past Weeks' High & Low Weather Summary

 TemperatureHumidityPressure
High61 °F (Mar 17, 12:55 PM)100% (Mar 16, 3:55 AM)30.36 "Hg (Mar 16, 3:55 AM)
Low30 °F (Mar 14, 7:25 AM)45% (Mar 17, 12:55 PM)29.65 "Hg (Mar 25, 3:55 AM)
Average42 °F80%30.11 "Hg
* Reported Mar 13 4:55 AM — Mar 28 4:25 AM, Alsdorf, Weather by CustomWeather, © 2015

Note: Actual official high and low records may vary slightly from our data, if they occured in-between our weather recording intervals... More about our weather records

Advertising

Alsdorf weather history for previous 24 hours

 ConditionsComfort  
Time TempWeatherWind HumidityBarometerVisibility
4:25 AM
Sat, Mar 28
39 °FClear.6 mph81%30.18 "HgN/A
3:55 AM37 °FOvercast.5 mph87%30.18 "HgN/A
3:25 AM37 °FPassing clouds.6 mph81%30.18 "HgN/A
2:55 AM37 °FChilly.5 mph81%30.18 "HgN/A
2:25 AM37 °FChilly.3 mph81%30.18 "HgN/A
1:55 AM37 °FPassing clouds.3 mph87%30.18 "HgN/A
1:25 AM37 °FPassing clouds.6 mph87%30.21 "HgN/A
12:55 AM39 °FPassing clouds.3 mph81%30.21 "HgN/A
12:25 AM41 °FOvercast.3 mph76%30.21 "HgN/A
11:55 PM
Fri, Mar 27
41 °FOvercast.5 mph76%30.21 "HgN/A
11:25 PM41 °FOvercast.2 mph70%30.21 "HgN/A
10:55 PM39 °FOvercast.No wind75%30.21 "HgN/A
10:25 PM39 °FChilly.1 mph75%30.21 "HgN/A
9:55 PM41 °FQuite cool.2 mph70%30.21 "HgN/A
9:25 PM43 °FPassing clouds.2 mph66%30.18 "HgN/A
8:55 PM43 °FQuite cool.2 mph66%30.18 "HgN/A
8:25 PM43 °FQuite cool.2 mph66%30.18 "HgN/A
7:55 PM45 °FClear.3 mph61%30.18 "HgN/A
7:25 PM45 °FClear.3 mph66%30.18 "HgN/A
6:55 PM46 °FScattered clouds.5 mph62%30.15 "HgN/A
6:25 PM48 °FScattered clouds.7 mph58%30.15 "HgN/A
5:55 PM48 °FPassing clouds.9 mph58%30.15 "HgN/A
5:25 PM48 °FBroken clouds.9 mph58%30.12 "HgN/A
4:55 PM48 °FMore clouds than sun.8 mph62%30.12 "HgN/A
4:25 PM48 °FMostly cloudy.8 mph62%30.12 "HgN/A
3:55 PM48 °FScattered clouds.8 mph62%30.12 "HgN/A
3:25 PM48 °FBroken clouds.9 mph62%30.09 "HgN/A
2:55 PM50 °FScattered clouds.9 mph58%30.09 "HgN/A
2:25 PM50 °FPassing clouds.13 mph62%30.09 "HgN/A
1:55 PM48 °FScattered clouds.12 mph62%30.09 "HgN/A
1:25 PM48 °FPartly sunny.12 mph66%30.09 "HgN/A
12:55 PM48 °FBroken clouds.10 mph66%30.09 "HgN/A
12:25 PM48 °FBroken clouds.10 mph66%30.07 "HgN/A
11:55 AM46 °FMostly cloudy.8 mph71%30.07 "HgN/A
11:25 AM45 °FPartly sunny.9 mph76%30.07 "HgN/A
10:55 AM45 °FMostly cloudy.9 mph76%30.07 "HgN/A
10:25 AM45 °FBroken clouds.10 mph76%30.04 "HgN/A
9:55 AM43 °FPartly sunny.9 mph81%30.04 "HgN/A
9:25 AM43 °FOvercast.12 mph81%30.04 "HgN/A
8:55 AM43 °FMostly cloudy.10 mph87%30.01 "HgN/A
8:25 AM41 °FMostly cloudy.10 mph87%30.01 "HgN/A
7:55 AM41 °FClear.12 mph81%30.01 "HgN/A
7:25 AM41 °FPartly sunny.10 mph81%29.98 "HgN/A
6:55 AM39 °FMostly cloudy.9 mph87%29.98 "HgN/A
6:25 AM39 °FOvercast.8 mph87%29.95 "HgN/A
Weather by CustomWeather, © 2015

See weather overviewHow to use our weather pages